Location: Clason Point
(40.8136°N, 73.8618°W)
Time: 11:15:02
(UTC+00:00)

Cosmos 1707 - Pass Details

Date: 16 September 2019
Orbit: 517 x 530 km, 82.5° (Epoch: 18 October)

Event Time Altitude Azimuth Distance (km) Brightness Sun altitude
Rises 23:39:00 0° 11° (N) 2,677 6.3 -7.6°
Reaches altitude 10° 23:41:55 10° 34° (NE) 1,783 5.2 -8.1°
Maximum altitude 23:44:17 15° 72° (ENE) 1,469 4.5 -8.6°
Enters shadow 23:46:07 12° 102° (ESE) 1,661 4.6 -8.9°
